THOR ABLESTAR DEB, 543

Orbit data source: Space-Track

THOR ABLESTAR DEB, 543 is space debris in LEO originally from a launch on Thu, 29 Jun 1961 UTC launched from the Air Force Eastern Test Range (AFETR). Debris objects in space refer to the collection of defunct objects orbiting the Earth. Examples of debris include non-operational satellites, rocket bodies, and fragments generated from explosions, collisions, or faulty payload assembly.

Loading next visibility...
Identifier
543, 1961-015GC
Orbit
LEO
Country
Flag of USUS
Related business
Manufacturer
Unknown
Mission
Spacecraft
Bus & Motor
Unknown
Mass
Unknown
Launch date (UTC)
1961-06-29 (65 years ago)
Launch vehicle
Unknown
Launch site
Air Force Eastern Test Range (AFETR)
Object type
Payload
Rocket body
Debris
Shape & HBR
Unknown shape, 0.1 m
Radar Cross Section
Small (<0.1 m²)

Expand to show TLE details & history
Last TLE update: 12 hours ago

TLE from 12 hours ago
0 THOR ABLESTAR DEB
1   543U 61015GC  26131.14261765  .00000090  00000-0  18198-3 0  9999
2   543  67.0332  30.7746 0073183 232.0287 277.7471 13.69223217231623
Epoch: 2026-05-11T03:25Z
TLE epoch observation values (Epoch: 2026-05-11T03:25:22.164Z)
Latitude
28.41631°
Longitude
-82.68915°
Altitude
998.143 km
Speed
7.359 km/s
True Right ascension
13h 10m 21s
True Declination
28° 16' 38"
Sunlit
Object was in full shadow at epoch
Visualization orbit readout
Latitude
Unknown
Longitude
Unknown
Altitude
Unknown
Speed
Unknown
Apparent Right ascension
Unknown
Apparent Declination
Unknown
Sunlit
N/A
Visualization observer readout
Local Sidereal Time
23:23:54
Azimuth
Unknown
Elevation
Unknown
Doppler factor
Unknown
Orbital elements
Apogee altitude
1,054.746 km
Perigee altitude
946.744 km
Semi-major axis
7,378.882 km
Eccentricity
0.00732
Inclination
67.0332°
RAAN
30.7746°
Arg. of periapsis
232.0287°
True anomaly
276.91514°
Mean anomaly
277.7471°
Eccentric anomaly
277.33122°
Mean motion
3.42419 °/min
Orbital period
105.13 mins
BSTAR
0.00018198
Loading maneuver chart data...
Computing Atmospheric mass density...

Documentation

Showing up to 5 results
|